Theta_e
295 295 295 295 295 294 294 293 293 293 293 293 293 292 291 291 290 289 288 287 286 285 285 285 284 284 283 283 282 282 282 281 281 281 281 280 280 280 279 279 279 279 279 278 278 277 277 276 276 276 276 276 276 276 276 276 276 276 276 275 275 275 276 276 274 273 274 275 275 274 273 272 271 271 270 270 271 272 272 271 271 270 270 270 271
294 295 294 294 294 294 294 293 293 292 292 292 292 291 290 290 289 288 287 287 286 285 285 284 284 283 282 282 281 281 281 281 281 281 281 280 279 280 279 279 279 278 278 277 277 277 276 276 276 276 276 276 276 275 275 275 275 275 275 275 274 274 275 275 275 273 272 273 273 273 272 272 270 271 270 270 270 271 269 269 270 270 270 270 270
294 294 293 293 293 293 292 291 291 291 291 291 291 290 289 289 288 288 287 286 285 285 284 284 283 283 282 282 281 281 281 281 281 281 281 280 279 279 279 279 279 278 278 277 276 276 276 276 276 276 277 275 275 275 275 274 274 274 274 274 274 274 274 275 275 273 272 272 273 271 270 270 269 269 270 270 271 270 269 269 269 270 270 270 270
292 292 292 292 292 291 291 291 290 290 290 291 290 289 288 288 287 287 287 286 285 285 284 284 283 283 282 281 281 281 281 281 280 280 280 280 279 278 278 278 279 278 278 277 276 276 276 275 275 276 276 275 274 274 274 274 274 274 273 274 273 273 274 274 275 274 273 271 272 270 271 269 269 269 270 270 270 269 269 269 269 269 269 270 270
291 291 291 291 290 290 290 290 290 290 290 290 289 288 287 287 287 287 286 285 285 284 284 283 283 283 282 281 280 280 280 280 280 280 280 279 278 278 278 278 278 277 277 276 278 276 276 275 275 275 275 274 274 273 273 273 273 273 273 273 273 273 274 273 273 273 272 270 270 271 270 269 268 268 269 268 269 269 269 268 268 268 268 269 270
291 291 290 290 290 289 290 289 289 290 290 289 289 288 287 287 286 287 286 285 284 284 283 283 283 282 282 281 280 280 280 280 280 279 279 278 278 277 277 277 277 277 276 276 276 276 275 275 275 275 275 274 273 273 273 272 272 272 272 272 272 272 272 272 273 273 272 271 270 269 270 268 268 267 267 268 268 267 267 267 268 268 267 268 268
290 290 290 290 290 289 289 289 290 290 290 289 288 287 286 286 286 286 285 285 284 283 283 282 282 282 281 280 280 280 280 280 279 279 278 277 277 277 277 277 276 276 275 275 275 275 275 275 275 275 274 274 273 273 272 272 272 272 272 272 272 271 271 271 272 271 271 270 269 269 268 268 267 265 267 268 268 267 265 265 266 268 267 267 266
289 289 289 289 290 289 289 290 289 289 288 287 286 285 285 284 284 284 283 283 283 283 282 282 282 282 281 280 280 280 279 279 279 279 278 277 277 277 277 276 276 275 275 275 275 275 275 274 274 274 274 274 274 273 273 272 272 271 271 271 271 271 270 271 271 270 270 269 268 268 268 266 266 267 267 267 266 266 266 265 264 265 266 267 267
289 289 289 289 290 290 289 288 287 286 286 285 284 284 283 283 283 283 283 283 283 283 282 282 281 281 280 280 279 279 279 279 279 278 277 277 277 277 276 276 275 274 274 274 274 274 274 274 274 274 275 276 276 275 274 274 272 271 271 271 271 270 270 270 270 270 269 268 267 267 266 266 266 264 264 265 264 264 265 266 264 266 266 265 266
289 289 289 289 289 289 288 287 286 285 284 284 283 283 283 283 283 282 282 283 282 282 281 281 281 281 280 279 279 279 279 279 281 282 281 278 277 277 276 275 275 274 274 273 273 273 274 274 275 277 277 277 277 277 276 276 275 272 271 271 270 270 270 269 269 269 268 267 267 266 265 265 264 264 263 265 264 265 265 265 263 265 265 264 265
288 288 289 289 288 287 286 285 284 284 284 284 283 283 282 282 282 281 281 281 281 281 281 280 280 281 280 279 278 279 279 279 283 283 283 282 278 276 276 275 275 274 274 273 273 273 274 275 275 277 277 277 276 277 276 276 275 275 274 274 272 270 269 269 269 269 268 267 267 266 265 264 264 264 264 264 264 264 264 265 264 264 263 262 260
288 288 288 288 287 287 286 285 284 284 283 283 283 282 281 281 281 281 281 280 280 280 280 280 280 280 280 279 278 278 278 281 284 284 284 283 281 277 275 275 274 274 274 273 273 273 274 274 275 275 275 275 275 275 275 276 276 275 275 274 274 274 273 271 270 269 268 266 266 265 264 264 264 264 264 264 263 265 265 265 264 264 262 262 262
289 288 288 288 287 287 285 284 284 283 283 283 282 281 280 280 280 280 280 280 279 279 280 280 279 279 279 279 278 278 278 282 284 285 284 283 282 278 275 275 274 273 273 273 273 273 274 274 274 274 274 276 275 273 273 274 276 276 275 275 274 274 274 274 274 271 270 267 266 265 265 265 263 264 264 263 266 263 264 264 264 264 264 263 262
288 288 288 288 287 286 285 284 284 284 283 282 281 280 280 280 280 280 280 279 279 279 279 279 279 279 279 279 278 278 278 282 285 285 284 284 282 279 275 275 274 273 273 273 273 273 273 273 271 271 273 272 271 271 271 272 272 272 271 270 272 274 275 274 273 272 271 268 267 265 265 264 264 265 266 267 265 264 264 263 265 263 263 263 264
287 288 288 287 286 285 284 284 284 283 282 281 281 280 280 280 279 279 279 279 278 279 279 279 279 279 279 279 278 278 278 283 285 285 284 284 283 279 275 275 274 273 273 273 272 272 272 271 271 271 271 270 271 270 269 270 270 269 268 268 268 269 272 271 270 269 268 267 266 266 266 265 265 266 266 267 267 266 267 265 265 265 265 265 262
287 287 287 286 286 285 284 284 283 282 282 281 280 280 280 279 279 279 278 278 279 279 279 279 279 278 278 278 278 278 278 283 285 285 285 284 283 277 274 274 273 273 272 272 272 272 272 272 271 271 270 270 272 273 271 270 269 268 268 268 268 268 268 271 271 271 269 267 267 266 266 267 268 268 268 268 268 268 268 267 266 265 261 258 259
286 287 286 286 286 285 284 284 283 282 281 280 280 280 280 279 279 279 278 278 278 278 279 279 279 278 278 278 277 278 278 282 284 285 285 284 281 273 273 273 272 272 272 272 272 272 272 272 272 271 270 270 273 274 273 271 268 268 267 266 266 266 267 270 272 272 272 271 271 271 271 270 270 269 270 270 270 268 266 262 260 263 256 254 256
287 286 286 286 286 285 284 283 283 282 281 280 280 280 280 279 279 278 278 277 277 278 278 278 278 278 277 277 277 277 278 281 284 284 284 284 279 273 273 272 272 271 272 272 272 272 272 273 273 271 270 271 275 275 274 270 267 267 266 266 265 265 266 269 270 270 273 272 272 271 270 269 268 267 267 268 268 268 265 258 262 261 257 259 255
287 287 287 287 286 285 284 283 283 282 281 281 281 280 279 279 279 278 278 278 277 277 277 277 277 276 277 277 278 277 278 280 284 284 284 284 277 273 272 272 271 271 271 271 272 271 271 273 273 273 272 273 277 276 275 270 267 267 266 266 265 264 265 267 267 268 268 266 266 265 265 265 263 262 263 265 266 266 265 262 261 261 256 257 258
288 287 285 285 285 284 284 283 283 282 281 281 280 280 279 278 278 277 277 277 276 276 276 277 276 275 276 276 277 277 277 278 281 284 284 283 277 273 272 271 270 270 271 271 270 270 271 271 273 275 275 277 277 277 275 272 268 267 266 265 265 264 266 266 266 265 265 264 263 263 262 262 262 262 261 261 262 262 263 263 262 261 259 258 257
284 285 284 284 284 283 283 283 282 282 282 281 280 279 279 278 277 276 276 276 275 275 275 276 274 274 275 275 276 276 277 278 280 283 284 283 278 275 272 271 271 270 270 270 270 269 270 270 271 274 276 277 277 277 275 273 271 267 266 265 266 266 267 265 266 267 264 263 262 262 261 261 261 261 261 261 261 261 262 263 262 262 260 257 255
282 282 283 283 283 282 282 282 282 282 281 280 279 278 278 277 276 276 276 275 274 274 275 274 273 273 274 275 275 275 277 278 278 282 283 283 279 277 272 272 272 271 270 270 270 269 269 270 270 273 276 276 277 277 276 274 272 267 267 269 269 270 266 265 265 264 263 261 260 259 258 258 258 259 259 259 260 261 261 261 262 262 261 260 258
281 282 282 282 281 281 281 281 281 281 280 279 278 277 276 275 275 275 275 274 273 273 273 273 272 272 273 273 274 274 275 276 278 279 281 282 279 278 275 274 275 272 270 269 269 269 270 270 270 273 276 276 277 277 276 275 272 268 271 271 270 271 268 263 261 259 258 257 257 255 257 257 256 257 258 258 259 260 260 261 261 260 259 260 260
280 280 280 280 280 280 280 279 280 279 279 278 278 277 275 275 274 274 274 273 272 272 272 272 271 271 271 271 272 272 274 274 277 278 279 281 280 278 277 276 276 272 271 270 270 270 270 270 270 274 276 276 277 277 276 274 269 271 272 271 271 269 262 261 259 258 257 256 256 255 255 257 257 257 257 258 258 259 260 260 259 259 258 258 258
278 278 279 279 279 278 278 278 278 278 278 278 277 276 274 273 272 273 272 272 272 272 272 272 271 271 270 270 270 271 272 273 274 276 278 279 279 278 277 277 277 275 271 271 270 270 271 273 274 275 276 276 277 276 275 273 272 272 271 271 266 262 260 259 258 257 256 256 256 256 256 256 257 257 258 259 259 259 257 256 257 256 256 256 255
276 277 277 276 276 276 276 275 276 278 278 278 278 277 275 274 274 273 272 272 272 272 271 271 270 270 270 269 269 269 269 270 272 274 275 276 277 277 277 277 275 275 272 270 271 273 273 274 274 275 275 275 274 272 270 269 271 271 270 266 261 260 258 257 256 257 256 256 255 255 256 257 257 258 258 258 257 255 255 252 252 252 251 249 250
275 274 275 275 274 274 276 276 276 276 276 277 277 276 276 275 274 273 273 272 272 271 271 270 269 269 268 268 267 267 268 269 270 271 272 274 274 275 274 274 275 273 270 270 271 271 272 272 272 273 272 274 272 270 269 269 268 267 264 261 260 259 258 258 257 257 256 255 255 255 256 256 256 255 254 254 253 254 255 251 250 251 250 248 249
274 274 273 273 273 274 275 273 274 274 274 275 274 274 274 274 273 273 272 272 271 271 270 269 268 268 268 267 266 266 267 267 268 269 270 271 271 272 273 273 272 270 268 269 269 269 270 271 271 270 270 268 265 265 265 264 263 261 260 259 258 258 259 260 259 258 257 257 255 255 253 253 252 253 251 251 252 252 252 250 250 249 249 247 245
273 272 271 270 271 271 272 272 273 273 272 272 272 272 272 273 273 273 273 273 273 272 271 270 269 269 268 267 265 266 266 266 267 271 270 272 269 268 270 270 270 268 269 271 267 267 267 267 265 264 264 261 262 261 261 260 259 259 258 257 257 257 257 257 256 256 256 255 254 254 253 252 251 252 251 250 251 251 249 248 249 248 246 246 247
271 271 271 271 271 270 270 271 271 271 271 270 269 269 271 272 272 271 269 272 273 274 274 270 270 269 268 268 268 267 267 267 271 273 271 272 273 272 272 271 271 268 271 273 267 265 265 264 264 262 261 261 260 259 259 259 257 258 257 258 256 256 256 256 256 255 255 254 254 253 253 252 251 251 249 250 249 248 248 251 245 245 245 245 246
272 271 270 270 270 270 269 269 269 269 269 269 268 267 267 270 272 272 271 271 272 273 274 274 273 272 269 267 269 272 270 271 273 273 273 273 274 274 273 273 272 272 274 269 265 264 263 262 262 262 262 261 260 260 260 259 258 258 257 257 256 256 256 256 256 255 254 254 253 253 252 251 251 251 250 249 249 248 245 247 247 246 247 246 246
271 270 270 269 269 268 269 268 268 267 267 267 267 267 266 265 267 270 270 271 272 273 274 273 274 274 273 270 268 268 271 272 273 272 271 271 273 274 274 274 273 273 274 271 263 263 263 262 262 261 261 260 260 260 260 259 258 258 257 256 256 256 256 255 256 255 254 253 252 252 251 251 251 250 250 249 249 247 247 245 245 245 246 244 246
270 269 268 267 267 267 267 267 266 266 266 266 266 266 266 265 264 264 268 270 270 272 273 273 273 274 273 273 272 271 270 272 273 273 270 271 273 271 274 274 274 274 274 268 263 262 262 262 261 261 261 260 261 260 260 259 259 258 258 257 256 256 257 256 257 254 254 253 253 252 252 251 251 250 249 249 248 247 246 246 245 244 245 245 246
268 267 267 267 266 266 266 266 266 266 266 266 266 266 265 265 265 265 264 265 267 269 272 272 272 272 272 273 271 271 272 273 272 272 270 270 272 273 273 272 275 275 272 267 265 262 262 261 261 261 261 261 261 260 259 259 259 258 258 257 257 257 256 256 254 253 253 253 253 251 251 250 250 248 248 246 247 246 246 246 245 244 245 245 245
266 265 265 265 265 265 265 265 265 265 265 265 265 264 264 264 264 264 264 264 264 265 266 268 271 272 270 271 271 271 271 272 273 273 270 271 273 273 274 270 269 269 270 268 265 263 262 261 260 260 261 260 260 260 259 259 258 257 257 256 256 255 254 253 253 253 252 252 251 250 250 249 248 248 248 247 246 245 246 245 245 246 245 245 245
265 265 265 265 265 265 264 264 265 264 264 264 264 263 263 263 263 263 263 264 264 263 262 263 264 269 270 270 271 270 271 271 272 272 270 271 273 274 268 267 266 266 263 260 262 262 262 261 261 260 260 259 259 259 258 258 257 257 257 256 255 254 253 253 252 252 251 251 250 250 249 248 248 248 246 246 246 247 246 246 246 246 246 246 246
264 264 264 264 264 263 264 264 263 264 263 262 262 261 261 261 261 261 262 262 262 262 262 260 261 263 264 263 267 270 270 270 271 272 270 270 272 271 267 266 265 264 261 260 259 259 259 259 259 259 259 258 258 258 257 257 256 256 256 255 254 254 253 253 252 251 250 249 249 249 248 248 248 247 247 246 246 245 246 245 246 247 247 247 249
262 262 262 262 262 262 261 261 261 262 260 260 259 259 259 259 259 260 260 259 260 260 260 260 261 261 262 261 263 263 265 267 267 266 269 269 269 265 262 263 262 261 261 260 259 258 258 258 258 257 257 257 256 256 256 255 255 255 254 254 253 253 254 253 253 251 250 249 249 248 247 247 247 246 246 246 246 245 246 246 245 245 246 248 247
261 263 263 262 262 260 259 259 259 258 258 258 257 258 258 258 258 258 259 258 259 259 259 259 260 260 261 260 258 261 261 260 261 260 260 260 260 258 258 259 260 259 259 259 258 258 257 257 257 257 256 256 256 255 255 255 254 253 253 252 252 251 251 250 250 249 248 248 248 246 246 246 245 245 245 245 245 245 245 246 246 246 246 246 246
259 259 261 261 259 259 259 258 258 258 258 257 257 258 257 258 258 258 258 259 258 259 259 259 259 260 260 258 257 259 257 260 259 259 258 258 258 258 257 257 257 257 257 257 258 257 257 256 256 255 255 255 255 255 255 254 253 253 252 251 250 249 249 249 249 248 248 247 246 246 246 245 245 244 243 245 245 245 245 246 246 247 246 246 247
258 259 259 260 260 258 258 258 257 257 257 257 257 257 257 258 258 258 258 258 258 258 259 259 259 259 259 258 259 259 257 258 258 257 257 257 257 257 257 257 257 256 257 256 256 256 256 256 255 255 255 254 254 254 253 253 252 251 251 250 250 249 248 247 247 247 247 246 246 245 245 244 244 244 244 245 248 247 247 247 247 246 247 247 247
257 257 257 257 257 257 256 256 256 257 256 256 256 256 256 256 257 257 257 257 257 257 257 257 258 257 258 260 259 260 258 256 257 256 256 256 256 256 256 256 256 256 256 256 256 255 255 255 255 254 254 253 253 253 252 251 251 250 250 249 248 248 248 247 247 246 245 245 245 245 243 244 245 245 246 248 245 245 246 245 245 246 246 246 247
257 256 256 256 256 256 256 255 256 255 256 256 256 256 256 256 256 256 256 256 256 256 256 256 256 256 256 259 259 259 257 255 255 255 255 255 256 256 256 256 256 256 256 255 256 255 255 254 254 254 253 253 253 252 252 251 251 249 248 248 248 247 247 246 244 245 244 243 244 244 244 244 245 244 244 244 245 245 244 245 245 245 245 246 246
256 256 256 255 255 255 255 256 255 255 255 255 255 255 254 254 255 254 254 254 254 255 255 255 255 255 255 256 257 257 256 256 255 255 255 255 255 255 255 255 255 255 255 255 254 254 254 253 253 253 252 252 251 250 251 250 250 249 247 247 246 246 246 245 245 245 244 243 243 244 243 243 245 244 245 245 242 243 243 243 244 244 245 244 245
254 254 254 254 254 254 254 254 254 253 254 254 253 253 254 254 254 254 254 254 254 254 254 254 255 255 254 254 255 255 256 256 255 254 254 254 254 254 255 254 254 254 254 254 253 253 252 252 252 251 251 250 249 248 249 247 246 247 247 247 246 247 247 246 245 244 245 243 244 243 243 243 242 242 243 242 243 242 244 243 243 246 245 245 245
254 254 254 254 253 253 253 252 253 253 253 253 253 253 253 253 253 253 254 254 254 254 254 254 254 254 254 254 254 255 255 255 255 255 254 254 254 254 254 254 254 253 253 253 252 251 251 251 251 251 250 250 248 246 246 244 245 245 244 244 247 247 246 244 242 243 243 242 243 242 242 243 242 243 245 242 242 243 243 243 242 244 244 244 245
253 253 253 253 253 253 253 253 252 252 252 253 253 253 253 253 253 253 253 253 253 253 253 253 254 253 254 254 253 253 254 254 254 254 253 253 254 254 253 253 253 252 251 251 250 250 249 249 249 249 249 247 245 245 244 244 243 243 243 243 244 244 241 241 243 243 242 243 243 241 243 243 243 243 245 245 243 243 244 244 243 243 244 245 244
253 253 253 253 253 252 253 252 252 253 252 252 252 252 252 252 252 252 252 252 253 252 252 252 253 253 253 253 253 253 253 253 253 253 253 252 253 253 252 252 251 251 250 249 247 248 247 247 247 247 247 246 246 245 244 243 242 242 242 242 243 242 244 245 242 242 242 242 242 242 242 243 242 242 242 243 241 242 243 243 244 244 244 245 245
252 252 252 252 253 252 252 252 252 252 251 252 252 252 252 252 252 252 252 252 252 252 252 252 252 252 252 252 252 252 252 252 252 252 252 252 251 251 251 250 248 248 248 248 248 247 247 247 246 246 246 246 245 245 245 243 244 243 241 240 245 249 248 247 245 242 245 244 242 242 241 242 242 242 244 243 244 243 244 243 244 245 245 245 245
251 251 251 251 251 251 251 251 251 251 250 251 251 251 251 251 251 251 251 251 252 251 251 252 252 252 252 252 252 252 252 251 251 251 251 251 250 250 249 248 247 247 247 247 247 247 246 244 245 244 245 244 245 245 244 244 243 244 242 243 247 249 249 249 248 247 246 242 243 242 243 243 242 243 243 243 243 244 244 244 244 245 245 244 244
251 251 250 250 250 250 250 249 250 250 249 250 250 250 250 250 250 250 250 251 251 251 251 251 251 251 251 251 251 251 251 251 251 251 250 250 250 249 248 247 247 247 247 247 247 246 245 244 244 245 244 245 244 244 243 244 242 243 245 247 248 248 249 249 248 248 249 247 242 244 244 244 243 243 243 243 243 242 244 245 244 244 244 244 245
Wind_Speed
10 11 9 10 9 11 11 9 10 9 8 10 10 10 9 10 10 9 8 10 9 10 10 10 9 9 9 8 9 9 9 8 7 8 7 8 7 8 8 8 9 7 8 7 5 7 7 8 7 5 6 7 6 6 5 5 5 5 4 5 5 4 4 5 9 8 3 2 5 5 4 4 5 3 4 4 4 5 7 5 5 5 5 5 4
11 11 9 9 11 11 10 7 8 7 9 9 10 10 10 10 9 8 11 9 9 10 10 8 8 8 9 8 9 9 9 9 9 8 9 9 8 6 8 9 9 8 8 8 7 6 7 8 6 6 4 7 6 6 5 5 5 6 5 5 5 4 2 5 6 9 8 5 5 4 4 4 6 3 3 3 3 4 6 6 4 5 5 4 4
9 8 8 9 10 8 7 8 8 9 10 9 10 10 9 8 8 10 9 9 8 9 10 9 9 9 9 9 9 10 10 10 9 9 9 10 10 8 7 9 10 10 9 9 8 7 8 7 7 6 5 7 6 5 5 6 5 6 6 4 6 4 4 4 6 5 9 5 5 4 4 4 5 3 2 2 3 4 5 5 4 4 4 5 4
7 7 7 8 7 7 9 8 8 9 10 10 11 9 9 8 9 10 10 9 11 10 10 11 10 11 11 10 10 10 10 9 9 8 9 10 10 10 8 8 7 8 9 9 9 8 9 8 6 6 6 8 6 6 5 5 6 6 6 5 6 5 4 4 3 7 5 7 2 3 4 5 4 3 2 2 4 4 4 3 4 5 4 5 5
7 8 8 9 8 9 9 9 10 11 12 10 12 11 11 11 11 13 12 12 12 11 10 10 10 10 11 11 10 9 9 9 9 8 7 7 9 9 9 8 7 7 7 8 7 8 8 8 8 7 7 9 6 6 6 7 5 5 6 5 6 5 5 5 5 5 7 7 5 3 5 5 4 3 3 2 3 3 4 5 5 5 5 5 5
9 9 9 10 10 11 12 11 13 15 14 12 14 13 12 12 12 11 12 13 11 10 11 10 10 11 9 9 9 9 8 9 9 9 9 8 8 7 7 8 7 7 7 7 7 7 8 8 8 8 8 9 8 7 6 7 6 6 6 5 6 6 7 6 6 7 8 7 6 5 3 3 4 5 5 5 5 5 4 4 4 6 6 6 6
10 11 11 12 11 13 12 13 13 13 12 12 10 9 10 10 10 11 9 9 10 10 10 10 9 10 9 9 10 10 10 9 10 10 10 10 10 10 9 8 8 7 6 7 6 6 7 7 7 7 7 7 9 8 8 7 5 6 5 6 5 7 7 6 7 8 7 7 5 5 5 4 4 3 4 4 5 5 5 6 6 5 6 6 7
10 10 10 11 12 12 13 12 10 10 8 6 7 7 7 7 8 7 7 9 11 11 12 12 9 9 10 10 10 9 10 10 10 10 10 11 10 10 10 10 9 8 7 7 6 6 6 6 6 6 7 6 6 6 6 6 5 5 4 5 6 7 7 7 7 7 7 6 6 6 4 4 4 3 2 2 3 4 5 4 4 6 6 6 5
10 11 11 13 15 12 10 8 7 7 7 7 8 8 9 9 8 9 10 10 9 10 10 11 11 11 9 10 10 9 11 11 10 11 12 11 10 11 10 10 10 8 7 6 5 5 6 6 5 5 7 10 12 9 8 7 5 6 5 5 5 7 6 5 5 5 5 6 6 5 5 5 4 3 2 3 4 2 3 2 2 3 3 4 4
10 11 13 15 11 8 8 7 7 7 8 9 10 10 10 10 10 10 11 10 10 10 10 10 11 12 12 10 10 9 9 8 9 15 12 10 11 9 9 10 10 10 8 8 6 6 6 6 7 13 13 13 13 13 13 11 9 5 5 6 6 6 4 5 5 4 5 6 5 6 6 5 4 4 3 3 4 1 2 2 3 4 4 4 4
9 10 13 9 6 6 7 7 7 9 9 8 8 9 9 8 8 9 9 9 10 9 10 11 11 10 11 11 11 9 8 7 15 18 18 18 12 11 11 10 10 8 6 9 9 9 7 7 7 10 11 11 10 13 12 12 11 11 10 8 6 5 5 6 4 4 5 5 5 4 5 6 5 4 3 3 2 3 1 1 1 1 1 2 4
11 12 12 9 9 10 9 9 9 10 9 11 10 9 8 8 9 9 9 9 9 7 9 10 9 9 9 9 10 10 9 11 19 20 20 20 15 11 10 10 9 6 6 7 7 8 9 9 8 7 7 7 8 9 11 13 12 12 12 11 10 8 6 4 6 6 6 6 6 5 5 5 5 4 3 4 2 3 2 2 2 2 2 1 3
12 12 12 10 11 10 9 10 11 11 11 10 9 9 10 10 11 11 12 10 7 10 11 10 11 9 10 11 11 10 9 14 20 21 20 20 19 14 9 10 8 7 6 7 8 9 9 10 11 8 7 15 9 6 7 9 13 13 12 11 10 9 9 8 6 5 6 6 7 6 5 5 5 4 5 3 3 3 3 3 4 3 3 3 4
11 12 11 11 10 9 9 10 11 11 9 9 9 10 11 13 11 10 9 9 11 10 10 12 10 11 12 12 11 9 10 14 21 21 21 21 21 15 9 10 10 7 7 7 7 11 10 10 9 9 11 9 6 8 7 6 8 7 6 4 6 8 9 9 9 9 7 5 6 6 5 6 4 5 5 5 4 4 3 3 4 4 4 4 5
11 12 11 10 9 9 10 11 11 9 9 10 10 11 13 11 11 11 11 12 13 13 13 13 12 11 11 10 10 10 9 17 22 22 22 22 22 15 10 9 9 7 6 6 7 8 8 9 9 10 11 8 8 9 8 7 8 7 7 6 4 4 7 7 6 6 6 5 6 7 6 6 4 5 4 3 5 4 4 4 5 4 4 3 3
11 10 10 10 10 10 11 11 11 10 10 10 11 13 13 13 13 11 10 10 9 9 9 10 11 12 11 11 11 11 10 20 22 22 23 22 23 11 9 8 8 8 8 8 8 8 8 9 10 10 10 10 13 17 12 9 9 9 9 8 6 5 4 8 10 9 8 7 7 7 7 7 7 5 4 4 4 4 4 4 1 3 2 1 4
12 12 11 11 11 11 11 11 11 11 11 11 13 14 13 12 11 9 11 11 11 12 12 11 11 11 12 12 12 11 10 17 22 22 23 24 16 10 8 8 8 9 9 10 9 9 9 10 10 10 11 10 16 18 17 14 10 10 9 9 7 6 5 8 12 13 13 13 14 13 11 8 4 3 3 4 3 4 3 1 3 3 2 4 3
13 11 12 13 12 11 11 12 12 12 12 14 15 13 11 10 11 10 12 13 13 13 11 10 10 11 13 14 13 12 11 15 23 23 23 25 16 11 8 10 9 9 10 10 9 9 10 15 13 11 11 11 19 20 19 14 10 10 10 10 10 8 6 4 8 8 14 14 13 12 9 5 5 3 0 2 4 4 4 5 5 3 3 4 4
12 13 14 10 9 10 10 11 12 12 13 14 12 12 13 13 10 10 11 10 11 9 9 10 9 9 11 12 13 14 11 13 23 24 25 24 14 8 9 9 10 9 10 10 9 8 9 12 16 13 12 14 22 21 21 14 9 10 10 10 10 10 8 6 7 8 9 7 6 6 4 6 4 3 1 2 3 3 2 3 4 3 4 4 3
12 7 5 6 8 9 9 11 12 12 13 12 11 12 9 9 10 11 10 9 9 9 9 10 11 10 10 12 11 12 12 12 17 25 24 24 20 11 8 9 10 11 10 10 10 9 10 10 13 17 18 20 22 23 22 18 11 10 9 9 9 9 6 7 6 6 6 6 5 4 4 3 3 2 1 0 1 1 3 3 3 4 3 5 5
3 5 5 6 7 9 9 11 13 12 11 11 10 9 9 10 9 10 10 9 8 8 10 9 8 8 8 10 10 8 10 12 14 26 26 26 23 16 7 6 8 8 9 10 8 9 9 9 9 18 21 21 22 23 22 19 15 9 8 6 5 7 8 8 8 10 6 5 4 4 3 2 2 2 1 2 2 2 2 4 4 5 4 5 5
3 4 6 7 8 8 9 9 9 9 8 7 8 9 7 8 9 9 8 9 10 10 9 7 7 6 7 9 8 8 9 12 10 21 25 26 23 19 10 7 8 7 8 7 7 7 9 10 8 17 24 22 22 22 22 19 18 8 8 12 12 16 9 6 3 4 4 4 4 2 1 1 1 2 3 3 3 4 4 4 5 5 3 3 5
4 4 6 7 7 8 8 9 9 7 8 9 10 10 8 9 9 9 10 10 10 10 10 8 8 9 8 7 6 6 6 8 13 13 22 26 24 21 18 13 19 8 7 8 8 7 5 6 7 19 24 22 21 22 21 21 16 10 16 15 15 17 12 5 6 6 5 5 4 4 4 3 4 4 3 3 4 4 4 4 4 3 1 1 2
4 4 5 6 6 7 7 8 8 8 9 9 9 9 9 9 9 9 10 10 9 10 9 8 8 10 10 8 7 6 6 6 9 12 15 25 23 22 21 20 20 10 5 4 5 6 6 6 10 22 22 22 22 22 20 19 13 16 16 16 15 13 9 8 6 7 6 5 6 5 5 4 2 3 4 4 4 4 4 3 2 1 1 2 3
4 5 5 5 6 6 5 6 7 7 7 8 9 8 8 8 9 7 8 9 9 10 9 9 10 10 10 10 8 7 6 7 7 11 15 19 23 22 22 22 21 21 10 6 4 6 9 17 21 21 21 21 22 21 18 18 20 17 17 16 14 7 7 7 7 6 5 5 5 5 5 5 4 4 3 3 3 2 1 0 0 0 1 3 3
4 5 5 4 5 4 5 5 5 6 6 7 8 8 10 10 10 9 9 9 9 10 9 9 9 10 11 10 9 8 7 7 8 9 10 13 15 21 23 23 21 22 13 8 11 18 19 21 23 21 20 18 13 9 6 9 17 17 17 15 9 8 7 6 5 6 6 5 5 6 6 2 2 3 3 3 2 4 2 1 3 5 2 2 5
4 4 4 3 2 3 5 5 5 5 5 5 6 6 7 8 9 9 10 10 10 9 9 10 10 10 11 10 9 8 8 8 8 7 8 9 9 12 14 15 19 19 11 10 12 12 16 16 14 16 10 16 11 8 10 13 11 10 7 7 7 6 6 6 7 6 5 5 5 5 2 1 1 1 2 2 3 4 2 3 3 5 3 2 4
4 4 3 2 2 3 4 4 5 4 4 5 6 5 5 7 9 10 11 11 11 11 10 10 11 11 11 11 10 9 8 8 9 10 9 10 8 8 9 9 10 10 10 10 9 8 8 11 15 11 8 6 7 6 6 6 6 7 6 5 5 5 5 6 5 4 4 3 4 2 1 2 3 4 2 3 5 5 3 4 5 4 4 1 2
1 0 1 2 1 1 2 2 3 3 3 2 1 1 3 6 7 6 3 5 8 11 11 10 10 9 10 12 14 12 10 11 11 11 11 11 10 8 9 10 9 9 12 16 9 6 6 6 6 6 7 10 8 9 7 6 6 7 8 8 7 6 6 5 7 6 6 5 5 5 5 3 4 4 5 4 6 6 4 5 4 5 3 2 6
0 0 1 1 2 2 2 2 2 3 4 4 4 5 7 7 3 2 1 3 4 3 7 8 8 9 10 9 13 16 16 15 17 21 16 15 17 14 12 12 14 11 16 23 12 9 8 8 8 9 10 11 11 11 10 10 10 6 5 6 6 7 6 6 6 6 5 5 5 4 5 4 5 5 5 6 5 4 4 5 4 3 4 5 6
1 0 0 1 1 1 2 2 2 3 3 4 3 5 4 6 8 7 5 4 5 6 8 8 10 12 10 9 10 12 3 8 21 21 21 20 21 19 18 17 19 22 23 15 10 11 10 9 8 8 9 9 13 11 8 7 8 7 6 6 6 6 6 6 6 5 5 5 4 4 4 5 6 5 6 6 6 6 3 3 3 5 6 6 7
2 2 1 1 1 1 2 2 3 4 3 3 4 4 5 6 4 6 7 5 5 7 8 10 12 15 14 12 9 8 11 15 21 21 20 21 22 21 21 21 21 24 24 21 11 9 10 10 9 8 9 8 9 7 8 8 8 7 6 6 6 6 7 7 6 6 5 5 5 5 6 6 7 6 6 6 7 5 5 4 5 6 6 5 7
3 2 2 2 2 2 3 3 3 4 5 4 3 3 4 4 6 4 2 5 4 6 8 10 12 14 16 17 17 14 13 15 20 21 20 21 21 21 22 23 22 23 25 13 10 10 9 9 10 9 9 9 9 8 8 7 7 7 7 7 7 7 7 7 5 6 6 6 6 6 6 6 6 6 6 7 6 6 5 6 6 6 5 6 7
5 2 1 2 3 3 2 3 4 3 2 3 2 3 3 3 4 5 5 3 3 4 6 9 11 13 14 16 17 18 18 17 19 20 20 20 21 21 20 16 22 24 20 10 10 10 9 9 9 9 9 8 8 8 8 8 7 7 7 7 6 6 6 5 5 6 5 6 6 6 5 6 6 6 6 6 6 5 6 7 6 5 6 7 7
5 6 7 5 3 3 3 2 2 3 3 2 2 2 3 2 3 4 5 6 6 6 4 5 10 14 11 12 16 18 18 18 20 21 22 22 21 22 21 11 12 11 13 10 8 8 9 9 9 9 8 9 8 8 8 8 7 7 7 7 6 5 5 5 6 6 6 6 5 6 6 6 6 6 6 6 6 6 6 6 6 6 7 7 7
5 4 4 5 4 4 3 3 3 2 2 3 3 3 2 2 2 2 1 1 2 4 2 1 0 4 13 12 16 18 18 18 19 21 22 23 22 22 12 10 9 9 4 2 6 7 8 8 8 8 7 7 7 7 7 7 7 7 7 7 7 6 6 6 6 6 6 6 7 6 6 6 6 7 5 6 6 7 6 6 6 6 7 7 6
4 4 4 4 4 4 4 3 3 3 3 4 3 3 2 2 1 1 1 1 2 1 2 2 2 3 3 1 6 13 14 14 15 17 21 21 22 16 8 8 9 8 4 5 5 5 5 5 6 7 6 7 7 7 6 7 7 6 6 6 6 7 6 7 7 7 7 6 6 7 6 7 6 6 6 7 6 6 7 6 6 7 7 7 6
4 4 3 3 4 3 4 4 3 4 4 3 3 3 2 1 1 1 1 1 2 4 4 3 2 5 6 4 4 3 3 6 6 2 10 16 13 6 5 7 6 7 6 5 6 5 5 4 5 6 5 6 7 6 6 6 6 6 6 6 6 6 8 7 8 7 6 6 6 6 6 6 6 6 6 7 7 7 6 7 6 6 5 6 5
4 5 6 6 4 3 3 3 3 3 2 2 2 2 2 1 1 1 2 2 3 3 3 4 4 5 4 3 3 3 6 4 5 7 4 3 3 5 5 4 4 5 4 5 5 5 5 6 5 6 6 6 6 6 7 7 6 6 6 6 6 6 7 6 6 6 6 6 6 5 5 5 6 6 6 7 7 6 6 5 5 5 6 6 5
4 3 4 5 4 3 3 3 2 2 1 1 1 1 2 2 3 4 3 4 5 5 5 6 6 5 3 4 5 4 7 7 6 5 4 3 3 3 5 4 3 5 5 4 4 5 5 5 5 6 6 6 6 6 6 6 6 6 6 6 7 7 7 7 7 6 6 6 5 6 6 6 6 6 6 6 6 6 5 5 5 5 6 6 6
4 4 4 4 4 3 3 2 1 1 0 0 0 1 2 2 2 3 3 4 4 5 5 4 5 1 2 4 6 5 5 6 4 4 4 5 4 4 4 4 5 4 4 5 5 4 5 5 5 5 5 6 5 6 6 6 6 6 6 6 6 7 7 6 6 6 6 6 6 6 6 7 6 7 7 6 6 5 5 5 5 5 6 6 6
3 3 4 4 4 3 2 2 2 2 1 0 1 1 1 2 1 2 3 3 3 3 4 4 3 1 2 7 9 10 5 4 2 3 4 4 5 5 4 4 4 5 6 6 6 6 6 5 6 5 6 6 6 6 5 6 6 6 7 6 7 6 6 6 6 6 6 6 6 7 6 7 7 6 6 5 5 5 5 5 5 5 5 5 6
3 2 2 3 2 1 1 1 1 0 1 0 2 1 1 2 2 2 3 3 4 3 4 5 4 2 3 7 7 9 4 4 4 5 5 5 5 5 6 6 6 5 5 5 5 5 6 6 6 6 6 7 7 7 7 7 7 7 6 7 7 7 6 6 5 6 6 6 7 6 6 6 6 5 6 5 5 6 5 4 4 4 5 5 5
2 2 2 1 1 1 1 0 1 2 1 2 1 2 2 2 2 3 3 4 4 4 4 5 4 4 4 5 6 6 6 5 6 6 6 6 6 7 6 6 5 5 5 5 5 5 5 6 5 5 5 5 5 5 6 6 7 7 7 7 6 7 7 6 7 7 7 8 7 7 7 5 6 6 5 6 4 5 5 4 4 4 4 4 5
2 1 1 1 2 1 2 2 1 2 2 2 2 3 3 3 4 4 4 4 5 5 5 5 5 5 5 5 6 7 7 7 6 6 7 7 7 7 6 5 6 6 5 5 5 5 5 5 5 5 5 5 5 5 6 6 5 6 7 8 7 7 8 8 8 7 8 7 7 5 6 6 6 7 7 4 4 4 4 4 4 4 5 5 5
3 2 3 2 3 4 3 3 3 2 3 3 3 3 4 3 4 4 4 4 4 5 5 5 5 5 5 6 6 5 6 6 6 6 5 6 6 6 6 6 6 5 5 5 5 6 6 6 6 6 6 6 5 5 5 4 5 5 6 5 7 7 7 6 6 7 7 6 7 6 5 5 5 6 6 5 4 5 4 4 4 5 5 6 6
3 3 3 3 3 4 4 4 2 3 3 4 4 4 4 4 4 4 4 5 5 4 5 5 4 5 5 5 6 6 5 6 6 6 6 7 6 6 6 6 6 5 5 5 4 6 6 6 6 6 6 5 5 6 6 6 6 6 5 6 6 6 5 5 7 7 6 7 6 5 6 5 6 4 6 4 4 4 4 5 4 5 6 6 6
4 4 4 4 3 4 4 4 4 4 4 5 5 5 5 5 5 5 5 5 5 5 5 5 5 5 5 6 5 6 6 6 6 6 6 6 6 6 6 6 6 6 5 5 4 5 5 5 6 6 6 6 6 6 6 6 5 6 5 6 6 6 7 7 6 5 6 6 6 6 6 6 5 5 4 4 5 4 5 5 4 5 6 6 7
4 4 4 4 4 4 4 4 5 4 5 5 5 5 5 5 5 5 5 5 6 6 6 6 6 6 6 7 6 6 6 5 7 6 6 6 6 6 6 6 5 5 5 6 6 6 6 6 6 7 7 6 7 6 6 5 6 6 5 5 8 12 11 8 6 6 7 6 6 6 5 5 5 4 5 4 5 5 5 5 5 6 5 6 6
4 3 4 4 5 4 5 5 5 5 5 5 5 5 5 5 5 6 6 6 6 6 6 6 7 7 7 7 6 7 7 7 7 7 6 6 6 5 5 5 5 5 6 6 6 6 6 5 6 6 7 6 6 6 6 6 6 7 6 7 10 12 10 11 10 9 8 6 7 6 6 6 5 5 5 5 5 6 6 6 6 7 6 6 7
5 5 5 5 5 5 5 5 5 5 5 5 5 6 6 6 6 6 6 6 7 7 6 7 7 7 7 7 6 7 7 7 7 6 6 6 6 6 6 6 6 6 6 6 6 6 6 6 6 7 7 7 7 7 6 7 5 7 8 11 12 11 10 10 8 10 11 7 5 6 6 6 5 5 5 5 5 5 8 7 7 6 6 6 7
Wind_Direction
197 207 195 204 198 201 201 195 197 191 188 190 192 194 188 186 187 182 160 185 173 177 179 180 179 175 170 172 166 164 160 159 160 154 152 153 157 153 153 149 142 142 138 135 136 137 134 129 132 133 138 119 118 115 105 108 101 90 78 78 71 40 90 106 120 121 108 95 113 127 138 115 77 50 82 86 90 85 81 79 74 65 55 40 12
203 204 200 199 202 203 201 195 190 187 190 192 195 193 188 188 181 168 184 181 178 180 179 178 179 175 173 173 172 168 166 164 164 162 160 158 159 161 158 152 147 146 143 142 145 143 139 133 132 132 131 119 121 108 115 107 102 94 79 89 81 62 23 109 114 129 136 129 108 106 73 62 96 50 53 55 69 74 62 57 54 62 58 49 37
203 200 199 202 208 205 192 193 190 191 191 195 198 191 189 182 176 180 181 177 181 182 180 178 179 179 178 178 175 175 173 169 171 166 166 163 161 164 164 159 155 155 154 153 151 145 139 137 139 136 127 111 106 106 106 102 96 97 96 92 92 80 60 89 126 118 137 127 131 117 107 82 88 83 60 71 83 85 58 47 50 39 49 41 29
194 195 200 209 204 196 199 196 190 193 197 199 197 190 183 182 179 183 183 176 182 185 181 180 180 183 182 180 181 177 173 171 170 172 167 165 163 162 163 164 162 160 156 154 154 152 146 138 146 140 130 117 119 114 105 103 104 109 104 100 101 100 82 92 92 128 144 134 120 127 133 120 100 90 84 104 98 69 65 53 61 48 34 37 28
190 197 199 204 202 201 202 193 197 198 202 196 197 187 187 184 184 187 181 185 186 179 184 182 183 185 186 183 178 179 177 169 168 169 167 166 163 161 162 160 158 155 154 155 155 151 151 149 150 146 139 128 130 126 128 117 119 116 113 113 113 109 95 95 97 107 126 127 126 109 114 112 112 71 38 71 68 88 68 52 40 45 28 32 30
195 194 198 200 203 203 202 198 203 203 202 198 197 193 189 188 188 191 186 186 184 185 181 183 187 188 185 182 179 177 175 174 172 169 165 160 159 159 157 155 152 150 151 152 150 152 149 148 150 149 146 143 142 134 131 128 126 123 121 122 120 114 108 100 101 107 108 116 123 125 85 85 69 62 26 19 34 21 25 39 38 43 25 20 21
195 197 198 204 206 208 204 206 206 207 204 203 197 192 194 193 190 193 190 186 183 184 186 183 188 185 184 178 183 179 176 174 172 168 165 163 161 159 156 151 148 146 145 142 138 136 139 140 143 144 142 142 141 143 138 134 128 128 131 132 128 121 116 114 118 115 118 117 108 110 109 85 91 68 42 46 43 51 22 0 13 21 23 22 1
198 200 201 209 213 211 210 209 209 209 205 197 194 193 189 190 193 187 179 189 190 189 186 186 185 183 185 185 182 178 175 176 174 171 169 167 163 161 158 153 147 140 136 132 134 132 126 133 135 136 135 135 134 132 137 135 131 121 133 126 130 124 122 126 124 125 126 122 126 132 124 120 94 92 80 59 55 39 42 37 12 357 358 8 357
199 200 204 212 216 210 206 205 201 197 190 188 187 188 190 189 187 186 189 194 190 191 187 184 180 186 186 185 181 181 183 182 179 174 169 168 164 159 158 156 151 140 133 127 125 125 131 133 126 125 134 134 135 135 137 140 137 135 138 133 131 119 122 112 116 121 120 122 124 122 125 123 123 106 78 69 53 58 357 24 2 353 355 345 350
201 205 212 218 216 206 203 199 196 189 190 194 195 192 191 190 189 191 194 193 190 187 187 187 188 188 183 185 184 185 189 187 180 175 170 163 163 160 157 157 155 150 139 136 133 131 131 128 141 144 141 140 140 141 141 138 133 117 129 141 136 120 113 118 122 123 126 131 141 144 139 137 129 120 111 106 110 75 54 1 23 331 17 326 336
211 214 224 223 211 202 198 200 186 197 200 198 198 195 195 191 193 195 195 194 193 190 186 189 193 190 188 185 187 190 190 186 178 177 174 169 163 163 161 159 158 153 147 146 146 143 138 142 144 149 147 146 148 148 143 140 138 136 134 130 134 130 128 129 127 129 134 129 134 129 132 127 128 125 128 117 90 134 118 55 210 318 329 338 324
211 217 222 211 204 201 199 191 194 200 194 201 195 193 186 188 195 196 195 195 196 184 192 196 192 188 188 189 192 193 192 186 182 180 176 173 166 162 161 161 160 154 146 139 140 141 144 145 146 145 143 142 142 144 145 144 144 142 141 142 143 145 140 132 143 146 148 142 143 147 134 144 133 131 158 126 177 120 209 186 229 214 239 240 256
211 218 218 211 210 204 196 195 199 199 201 196 190 184 188 193 196 194 198 193 177 190 197 189 194 190 188 191 195 192 193 188 185 182 178 174 169 161 166 163 153 152 144 141 144 148 150 150 152 149 150 152 138 131 142 147 145 141 138 137 140 150 158 157 158 146 148 142 143 145 142 137 137 166 147 157 195 139 249 185 225 222 232 238 252
211 221 217 214 212 202 199 200 205 206 196 191 187 190 193 201 198 195 189 184 192 195 194 196 192 193 194 192 193 191 190 192 187 184 180 176 172 165 164 162 164 146 145 145 148 157 156 154 145 143 152 138 125 133 132 138 144 135 118 108 138 151 151 149 135 133 121 123 132 135 127 122 156 139 153 165 168 193 210 207 234 214 244 235 259
213 219 217 214 204 201 199 202 206 200 193 191 192 196 200 201 195 194 192 193 194 196 195 195 196 194 192 189 189 192 194 192 190 186 182 178 175 164 161 162 161 152 137 139 139 144 141 142 143 149 150 142 149 144 133 133 130 130 131 125 103 104 139 141 127 115 111 108 112 120 128 130 146 142 182 196 190 214 234 228 250 256 256 289 14
221 220 220 212 208 203 199 204 204 197 194 193 196 202 202 200 198 193 194 199 202 199 202 198 196 192 191 189 189 195 193 194 191 187 184 181 177 161 159 146 148 151 149 145 146 144 144 146 149 153 150 153 161 158 153 147 146 145 145 143 141 134 127 146 142 138 133 130 134 138 144 154 160 171 184 189 209 225 231 240 257 230 105 317 265
223 218 217 212 208 201 199 201 202 198 195 196 203 205 201 201 201 189 196 199 197 201 201 198 197 191 191 193 192 194 190 195 193 188 185 181 171 123 144 142 148 152 157 155 151 156 158 159 157 152 154 162 169 165 162 153 152 154 151 151 154 153 169 166 162 158 153 150 151 150 149 144 150 172 221 248 238 227 226 120 230 188 139 228 272
222 214 216 213 205 197 198 198 200 199 196 203 206 206 202 202 201 189 197 197 201 203 197 197 196 195 193 195 193 188 190 193 193 190 186 186 170 161 143 152 151 151 154 159 162 162 165 162 158 157 163 169 174 168 164 156 155 158 155 158 163 165 177 165 164 163 158 154 150 142 134 135 112 86 22 263 257 256 214 191 227 135 196 231 224
221 214 217 208 199 197 197 198 202 200 203 208 204 202 201 200 195 190 201 201 206 195 196 196 196 195 199 195 190 190 189 192 193 194 191 189 159 155 148 151 154 158 158 158 161 160 162 167 164 165 165 174 174 172 168 159 159 162 164 162 168 173 178 152 152 149 146 124 130 124 107 107 96 117 184 253 266 253 275 163 218 213 186 230 236
222 217 209 195 195 194 195 199 203 203 208 206 203 206 198 190 192 192 198 199 199 193 195 199 195 196 188 192 193 192 188 192 194 194 193 186 165 161 156 152 159 156 156 160 156 164 167 168 173 171 173 177 178 175 171 163 163 165 166 170 173 174 159 152 154 136 141 146 144 131 138 130 127 117 96 15 327 277 228 227 210 221 215 207 212
205 200 192 189 193 198 197 200 204 208 206 205 201 199 194 194 188 190 193 193 191 195 196 198 179 178 183 180 184 185 189 189 194 197 198 192 174 168 161 144 143 145 151 162 164 160 163 168 177 183 184 186 183 180 172 170 165 164 167 168 172 154 145 158 169 158 152 146 141 144 140 127 128 147 176 216 207 225 230 233 213 225 209 193 205
173 178 190 196 200 199 201 204 204 206 201 190 192 199 195 187 189 189 187 188 193 195 192 182 179 173 172 187 181 178 188 190 188 197 198 193 184 177 170 166 157 134 154 153 158 165 172 173 170 189 190 191 188 185 176 172 169 151 173 173 176 171 164 158 145 117 131 113 111 93 95 117 176 197 209 210 216 218 219 224 235 226 230 185 180
181 187 195 200 203 201 201 198 199 195 195 191 191 194 183 181 186 181 185 188 190 192 187 177 171 181 181 185 186 185 186 188 193 198 200 191 186 184 174 168 172 161 154 165 168 162 150 164 172 189 190 192 192 190 180 175 169 164 175 175 177 176 157 114 117 123 129 141 149 181 196 185 187 200 201 207 224 219 218 236 231 206 173 238 252
179 197 206 208 203 204 201 199 198 195 192 185 189 187 183 184 181 184 186 184 186 188 187 175 174 181 183 179 182 180 186 186 195 196 198 194 188 186 182 177 177 155 144 129 146 155 163 162 174 189 191 192 196 190 180 175 160 173 174 177 181 148 124 139 143 153 156 156 170 203 211 200 172 203 205 205 197 221 222 221 152 243 224 259 273
192 208 215 210 208 207 196 199 196 195 190 181 186 186 182 174 181 188 181 187 188 190 191 182 183 184 181 183 178 176 178 180 187 192 191 192 193 190 188 183 185 177 169 138 132 154 169 176 180 190 193 195 196 185 185 169 163 172 175 167 124 123 136 145 156 142 161 191 205 210 213 208 192 199 211 201 204 191 117 312 41 4 348 326 291
214 225 222 217 215 192 194 203 195 196 186 189 194 191 183 182 185 185 183 191 190 191 191 184 186 184 186 181 177 174 170 169 179 183 184 186 190 190 187 188 186 183 163 157 155 177 183 183 185 192 197 197 186 178 150 159 170 173 168 135 131 134 150 144 152 162 192 205 201 209 220 189 175 190 181 191 190 221 205 224 273 289 288 323 306
230 238 230 224 203 184 198 196 189 189 187 189 192 191 184 187 186 186 187 188 190 191 187 184 185 188 188 178 167 169 170 176 173 172 176 181 187 186 186 188 184 175 152 164 171 180 185 186 189 191 203 198 167 144 136 159 166 167 131 133 133 144 150 166 164 177 187 195 198 199 189 165 127 142 218 201 222 245 201 187 237 254 261 258 262
224 238 220 195 191 199 204 184 178 183 187 183 185 189 192 190 191 192 190 188 188 192 187 186 187 186 186 177 170 171 178 180 184 174 180 182 179 175 178 177 175 157 160 166 168 170 168 179 185 189 193 152 110 127 132 138 138 131 138 136 142 140 159 154 153 132 166 161 159 148 136 148 172 210 192 208 224 234 223 183 216 245 260 161 335
294 88 106 111 142 110 147 156 176 162 151 115 59 17 209 202 200 208 219 203 200 190 187 191 190 187 179 177 166 178 186 191 196 190 181 172 166 164 170 174 162 160 168 164 144 136 142 157 158 158 151 144 142 131 150 137 127 126 132 126 123 151 155 164 169 192 184 165 187 196 200 186 202 212 194 218 230 222 212 191 241 209 258 243 221
66 58 66 99 101 111 113 119 126 135 142 137 110 58 47 63 23 150 31 108 134 188 192 193 187 174 178 186 182 182 190 198 187 184 177 174 180 174 171 161 162 153 167 164 146 150 165 163 177 174 152 120 140 136 147 148 128 152 169 171 154 137 170 185 187 192 175 179 192 183 206 190 213 209 202 221 244 241 210 193 225 221 186 229 243
32 24 53 21 102 118 108 116 107 108 112 124 124 115 77 45 72 80 84 90 133 167 190 179 174 175 174 172 192 206 194 172 189 189 188 188 188 182 174 167 160 163 167 151 153 168 173 173 182 169 174 174 155 172 167 167 178 176 184 185 183 184 191 189 201 180 178 187 195 202 202 204 219 218 208 224 223 238 222 234 202 211 224 228 241
345 357 22 22 37 39 37 60 77 94 74 93 112 132 110 97 44 80 88 92 137 169 181 177 182 184 178 173 172 191 196 196 197 196 194 195 196 191 187 180 174 173 180 162 158 173 177 179 181 178 177 178 186 175 178 178 183 186 181 182 199 196 191 205 197 178 190 189 203 209 208 210 217 214 216 218 222 228 225 228 225 220 239 233 238
6 19 42 46 53 60 71 68 74 77 126 133 135 136 145 150 138 81 92 123 146 185 195 192 192 191 190 189 190 187 188 196 198 198 193 197 199 200 197 195 192 187 188 174 171 177 185 182 185 183 181 187 185 180 186 182 183 187 190 194 201 204 201 205 184 171 193 202 202 211 210 212 212 211 215 215 212 226 222 220 230 222 229 243 256
17 13 16 41 59 47 60 73 98 102 76 107 125 133 145 146 148 145 128 119 144 192 206 193 192 191 190 190 193 198 201 202 201 197 186 193 199 200 202 207 208 201 197 193 180 185 186 186 187 188 187 185 187 184 186 191 187 191 195 203 203 198 198 170 161 192 198 209 208 217 212 213 207 203 225 221 221 216 220 231 224 230 243 237 245
32 44 47 44 40 38 34 46 41 55 58 87 95 113 130 105 142 159 172 172 177 176 186 190 192 182 181 189 186 188 193 198 198 193 180 189 200 203 203 204 208 209 208 203 197 183 185 186 188 188 185 186 188 186 191 192 187 192 195 199 196 185 172 172 190 195 202 207 213 213 213 207 210 210 209 217 218 218 224 224 227 224 231 246 245
31 35 37 38 35 32 38 31 28 38 39 35 38 53 48 96 149 175 109 113 152 147 69 24 355 198 177 187 185 187 190 195 198 192 180 191 198 199 195 197 200 206 188 97 170 182 181 183 177 184 180 182 179 183 189 188 195 194 198 190 194 188 185 193 197 201 211 204 209 210 202 209 204 208 215 219 214 221 229 226 226 226 228 238 244
30 32 38 37 43 43 46 44 42 39 48 44 49 50 45 54 55 61 84 141 133 107 132 53 70 38 43 352 193 186 190 194 201 203 187 190 199 205 197 197 195 191 156 157 131 138 149 167 159 169 173 175 180 179 180 189 193 192 193 189 186 187 194 193 201 201 204 207 210 204 204 207 205 205 197 216 231 222 228 229 228 233 231 241 251
36 37 34 49 59 64 63 59 60 66 60 67 54 69 58 56 62 96 152 171 183 174 170 204 208 178 178 181 41 119 183 155 121 107 190 192 204 182 159 169 167 185 184 149 156 150 153 157 157 165 173 166 173 175 177 187 186 183 188 183 183 192 203 203 207 204 206 206 208 207 203 212 205 207 204 211 222 224 230 225 224 238 249 244 244
38 58 66 69 72 73 82 83 72 81 80 74 83 100 119 121 155 171 194 194 200 195 207 199 206 206 199 146 71 126 110 143 172 192 185 179 96 78 72 117 150 158 173 174 150 156 159 169 172 165 167 171 173 178 179 184 181 180 182 177 189 189 197 202 207 209 204 210 214 209 205 218 213 208 206 210 228 224 227 231 234 239 251 252 242
30 9 39 55 47 55 69 67 70 81 92 115 140 134 160 190 200 204 206 197 209 208 202 204 211 217 177 121 158 168 163 187 186 185 166 207 179 111 101 132 140 164 166 174 185 183 174 171 173 172 178 176 177 179 184 177 182 181 177 184 185 196 204 200 203 201 207 206 204 212 208 215 214 208 211 215 221 224 224 236 234 235 240 249 256
12 18 24 29 43 42 37 47 51 46 19 38 247 221 221 238 240 236 229 226 227 225 223 225 230 203 139 180 193 196 187 196 170 176 196 193 202 198 188 177 171 171 182 176 191 186 193 182 180 178 182 182 182 179 178 175 175 174 184 188 189 198 198 201 200 204 204 200 206 208 215 207 207 197 215 226 222 222 229 230 235 237 244 250 257
21 17 21 10 24 33 30 22 28 32 50 58 3 286 265 277 270 251 240 250 254 243 246 258 234 208 207 196 199 207 196 219 188 183 202 202 202 215 213 209 205 194 195 193 186 190 194 193 190 186 183 185 179 183 173 180 181 182 185 185 194 196 199 205 201 201 200 206 209 210 209 207 205 207 214 212 215 222 226 228 231 235 243 252 261
27 26 14 26 20 17 31 352 28 34 322 239 244 254 206 223 226 239 236 243 237 233 239 237 238 195 203 220 208 213 196 191 204 206 203 209 212 211 212 214 212 209 200 197 194 187 191 193 193 193 192 193 189 182 186 188 183 181 181 187 192 194 202 206 200 205 202 204 210 211 206 207 208 207 210 215 214 213 219 227 242 243 252 260 265
16 16 11 23 9 20 340 216 294 279 231 253 242 252 239 242 240 234 232 237 237 235 232 235 228 219 213 226 219 212 212 203 202 208 207 207 209 213 213 212 206 202 198 193 192 183 180 189 194 198 194 193 190 184 184 184 175 178 182 183 190 196 201 204 203 202 195 199 206 205 206 204 206 206 211 214 202 213 227 229 239 247 256 255 258
346 2 331 335 320 284 295 313 239 268 288 253 247 254 245 225 234 242 234 232 242 236 233 229 224 219 217 217 217 216 219 215 209 208 212 209 210 212 207 205 203 203 199 197 186 177 185 187 194 196 202 205 190 188 191 184 178 182 180 177 185 200 204 203 205 197 190 189 198 196 200 196 204 200 205 206 208 213 232 232 236 254 262 261 261
345 327 317 301 296 299 281 278 275 250 253 252 251 259 256 241 242 241 243 247 240 237 240 234 226 225 225 224 226 229 228 225 220 214 213 214 211 210 210 206 205 201 199 195 187 186 192 193 193 200 205 205 193 199 198 195 191 192 189 189 195 204 203 191 185 176 183 183 189 190 196 195 198 200 206 207 210 214 223 235 236 238 242 256 254
322 313 296 285 273 273 274 264 260 260 253 260 257 257 255 254 251 250 255 251 253 254 253 247 243 240 237 232 231 236 236 231 230 223 215 215 213 210 207 205 199 198 198 195 188 191 195 199 200 200 207 206 192 196 201 200 199 199 196 198 204 203 188 180 177 179 180 184 179 181 192 196 204 205 214 214 215 216 225 230 225 240 243 249 257
299 296 287 282 281 279 274 276 263 261 254 252 250 248 251 251 252 252 249 251 254 252 254 252 250 246 242 245 241 234 233 235 230 227 221 216 216 213 208 202 202 202 195 195 199 197 200 202 203 202 205 203 197 200 201 199 199 199 202 200 198 195 187 176 181 185 184 180 181 187 187 194 201 201 204 203 215 219 231 242 242 244 250 250 256
303 290 282 285 278 272 265 263 262 254 250 254 256 260 253 251 250 250 247 246 245 245 241 244 245 242 239 239 235 235 232 228 228 225 221 221 217 216 208 208 205 201 196 213 208 206 206 205 202 202 203 205 202 199 197 197 201 202 202 201 201 203 193 182 179 191 186 184 188 186 184 188 195 205 207 211 215 218 227 237 235 245 248 254 256
281 279 275 272 272 270 272 269 264 263 264 259 258 258 259 257 255 251 246 247 248 245 242 240 241 238 237 239 234 231 228 228 227 224 222 220 218 213 209 207 206 208 210 218 218 212 206 205 202 204 205 208 205 205 199 198 200 199 200 197 205 207 200 198 197 192 189 189 186 185 184 195 198 205 208 213 218 223 230 237 237 244 247 254 257
307 304 300 288 279 275 277 274 274 273 271 265 263 263 265 262 259 257 255 252 251 252 249 244 243 244 241 239 237 235 232 233 231 226 224 220 219 213 211 208 212 215 220 221 224 215 211 203 204 206 207 206 206 204 203 200 197 196 199 204 205 205 205 204 205 207 199 185 182 182 190 194 203 209 214 213 215 220 230 236 240 242 247 250 256